Wind_Speed
13 12 12 11 12 10 8 6 5 5 4 4 4 4 4 4 5 5 5 5 5 4 5 5 6 6 6 5 5 5 6 5 5 4 3 3 3 2 2 3 4 5 6 8 9 10 9 7 6
13 11 10 12 12 9 6 6 5 5 5 4 4 5 5 5 5 5 5 5 5 4 5 5 6 6 7 6 6 5 5 5 5 4 3 3 3 2 2 3 3 5 6 8 8 8 8 7 7
13 11 12 14 9 7 6 6 6 6 5 5 5 4 4 5 5 5 5 5 5 5 5 6 6 6 7 6 5 5 5 5 4 3 3 2 2 2 3 2 3 5 7 9 8 7 7 8 7
13 13 15 12 8 7 6 6 6 6 7 6 6 5 5 5 5 5 6 6 6 5 5 6 6 7 7 7 6 5 5 5 4 3 2 2 1 1 2 2 3 7 8 8 7 7 7 6 6
13 15 14 9 8 7 6 6 6 6 7 7 6 6 6 5 6 6 6 6 6 6 6 6 7 8 8 7 6 6 5 5 4 3 2 1 1 2 2 3 5 7 8 7 7 7 6 6 5
13 16 11 7 6 5 5 6 6 6 6 7 6 6 6 6 6 7 7 7 6 6 6 6 8 8 8 8 7 6 6 5 4 3 3 2 2 2 2 3 5 7 7 7 7 6 5 5 5
14 12 9 7 6 5 6 6 6 6 7 7 7 7 7 7 7 7 7 7 7 7 6 7 8 8 9 8 8 8 7 6 5 4 4 3 3 3 4 5 6 7 7 6 6 6 4 4 5
12 10 9 7 5 5 6 6 6 7 7 7 7 7 7 7 7 7 7 7 7 7 8 8 8 8 9 9 8 8 7 8 7 6 5 4 4 4 5 7 8 8 7 5 5 5 3 2 3
9 11 8 6 6 7 7 7 7 6 7 7 7 7 6 7 7 7 7 7 7 7 7 8 8 8 9 9 9 9 8 8 8 7 6 5 5 5 6 7 7 7 6 5 4 3 2 2 2
7 8 6 6 6 7 8 7 7 7 7 7 7 7 7 7 7 7 7 7 7 7 7 8 9 10 9 9 9 9 9 8 8 7 7 6 6 6 7 7 6 6 5 4 3 2 2 1 1
6 7 6 6 6 7 7 8 7 7 7 7 7 7 7 7 7 7 7 7 6 6 7 8 9 9 9 10 10 9 9 9 8 7 8 8 7 6 6 6 5 5 4 3 3 2 2 2 2
6 5 5 5 6 6 7 7 8 8 7 7 7 8 7 7 7 8 8 7 7 7 7 7 8 9 8 8 9 9 10 10 9 9 9 9 8 7 6 5 5 5 5 4 3 2 2 2 2
5 5 5 5 5 6 6 7 7 8 7 7 8 8 7 7 7 7 7 7 7 7 7 7 8 8 9 8 9 9 9 10 10 10 10 9 8 8 7 5 4 5 6 5 4 3 3 2 2
5 5 4 4 5 5 5 6 6 8 8 8 8 8 7 7 7 7 7 7 7 7 7 7 7 8 8 8 8 8 8 9 9 9 9 9 8 8 7 6 7 6 7 7 6 4 4 3 2
4 4 3 4 5 5 5 6 6 8 8 9 9 9 8 6 7 7 7 6 7 7 7 7 7 7 8 8 8 8 8 8 9 8 8 8 8 8 8 7 7 6 7 6 6 5 5 4 3
4 3 3 4 5 6 6 7 7 7 9 9 9 9 8 7 6 7 6 6 6 7 7 7 7 7 7 8 8 8 9 9 9 8 8 8 8 7 8 7 6 6 6 5 5 5 5 6 5
1 2 2 3 5 5 6 7 7 8 8 9 9 8 7 7 7 6 6 6 6 6 7 7 8 7 7 7 8 9 9 9 9 9 8 8 8 8 8 7 7 6 6 5 4 5 5 6 6
3 1 3 3 4 4 5 6 7 7 8 9 10 9 7 7 7 7 6 6 5 6 7 7 8 8 8 8 8 8 8 8 8 8 7 7 8 7 7 7 7 7 7 6 5 5 6 6 6
3 2 3 3 5 4 4 6 8 8 9 9 10 9 7 8 7 6 6 6 5 5 6 7 8 8 8 8 7 7 8 8 7 7 7 7 7 7 7 6 6 6 6 7 7 7 7 7 6
6 5 4 5 6 5 6 6 7 8 8 9 9 9 8 8 7 6 6 5 5 5 6 7 8 8 8 8 7 7 8 8 8 8 7 7 7 7 7 7 7 7 6 7 7 7 7 8 7
7 7 7 7 7 7 7 8 9 9 8 9 9 9 8 6 6 5 5 5 6 6 6 6 7 8 8 8 8 8 8 8 8 8 8 7 7 7 6 6 7 7 7 7 8 8 8 8 8
9 9 9 9 9 9 9 11 11 11 10 9 8 8 8 7 7 6 7 7 7 7 7 7 8 8 8 8 9 9 9 9 9 9 9 8 7 7 6 7 7 8 7 8 8 8 8 8 9
11 11 11 10 9 10 10 11 11 11 9 7 7 8 8 8 9 8 9 9 9 9 9 9 9 9 9 9 10 10 10 10 10 10 9 9 8 8 8 8 8 9 9 9 9 9 9 9 9
10 9 8 9 8 10 11 11 12 14 12 10 9 9 9 10 10 10 11 11 10 10 10 10 10 10 11 11 11 11 11 11 11 10 10 10 9 9 9 9 9 10 10 10 10 11 10 10 9
10 9 9 10 10 11 11 11 12 14 14 13 12 11 12 12 12 12 12 12 12 12 11 11 11 12 12 12 12 12 12 12 12 11 11 11 11 11 11 10 11 11 11 11 11 11 11 10 10
12 12 11 11 10 11 10 12 13 14 15 15 13 13 13 13 14 13 12 12 12 12 12 12 12 12 12 13 13 13 13 13 12 12 12 12 12 13 12 12 13 13 13 13 13 13 12 12 12
13 13 13 14 14 14 13 14 13 16 16 15 15 14 14 15 15 15 14 13 13 14 13 13 13 13 13 14 14 14 14 14 14 14 14 14 14 14 14 14 14 14 14 15 15 15 14 14 14
15 14 14 14 15 14 14 15 17 19 18 18 17 16 16 16 15 15 15 14 14 14 14 14 14 14 15 15 15 15 15 15 15 15 16 15 15 16 16 15 16 16 16 16 16 16 16 16 16
14 15 15 15 14 14 15 16 17 18 18 18 18 17 17 17 16 15 15 15 15 16 15 15 15 15 16 16 16 16 16 16 16 16 16 17 16 16 17 16 17 17 18 18 18 18 17 17 18
16 16 15 16 16 16 16 16 18 19 21 20 19 19 18 17 17 16 17 17 17 17 17 17 17 17 17 17 17 17 17 17 18 18 18 18 18 18 19 18 18 18 19 19 19 19 19 19 19
Wind_Direction
87 86 82 78 69 64 56 43 31 33 31 34 31 21 16 28 26 20 17 21 21 25 27 28 29 24 19 21 30 34 39 38 44 54 86 101 108 105 134 154 170 177 178 174 172 174 176 175 177
86 85 83 73 62 50 39 36 25 25 20 19 13 11 15 21 20 16 12 13 16 17 24 26 27 20 23 22 31 29 32 36 45 55 76 96 110 125 139 135 147 155 157 165 166 168 174 169 171
89 86 77 65 55 45 32 31 31 21 16 14 10 6 11 18 12 4 4 10 16 26 35 30 26 23 26 23 29 31 32 30 33 45 65 89 106 117 131 146 148 155 151 155 157 158 167 174 167
88 78 67 60 50 43 29 35 28 19 16 16 14 12 17 17 14 8 7 19 24 25 40 31 28 25 24 21 28 32 31 29 32 38 58 92 86 120 121 123 130 151 150 150 153 160 166 172 168
87 71 61 52 33 34 30 35 27 22 17 17 21 17 26 22 20 18 16 20 28 34 38 37 33 32 30 30 26 30 30 31 41 49 57 76 72 121 143 129 124 132 145 151 156 156 153 155 154
76 65 61 48 30 30 34 31 21 19 13 15 23 22 26 23 24 23 22 27 32 39 36 36 41 38 33 34 35 29 30 36 48 61 72 75 69 80 119 138 135 137 143 152 157 152 150 148 146
79 74 65 46 23 24 26 26 21 21 15 13 22 28 25 26 26 26 27 31 35 39 39 40 41 39 36 33 31 41 45 48 55 67 76 74 62 70 112 121 125 137 135 142 149 151 160 152 157
78 69 65 48 29 33 21 24 21 20 17 17 22 22 26 26 26 29 32 35 39 39 39 38 38 35 37 38 40 41 48 58 64 71 75 84 69 72 102 116 117 126 127 128 138 147 143 142 155
75 72 70 57 32 30 24 24 22 23 22 21 24 23 23 23 27 32 34 34 34 32 37 39 40 38 41 45 45 44 43 54 61 68 73 81 78 90 98 101 112 113 114 122 128 137 147 140 126
73 79 64 53 41 40 34 27 24 21 24 24 23 24 26 30 28 31 34 32 28 27 32 36 39 39 40 46 48 46 44 49 55 63 61 69 84 92 98 98 96 93 98 105 108 127 142 133 100
67 65 60 49 46 44 37 30 22 22 18 22 23 22 27 31 30 32 33 31 27 26 32 36 38 40 40 42 46 49 44 47 50 52 51 56 68 75 87 95 90 94 101 95 84 89 89 87 75
76 67 59 53 46 42 39 33 20 22 21 20 21 22 24 27 29 31 33 32 31 30 31 37 39 40 40 41 44 43 42 44 49 51 51 53 55 60 64 75 79 76 74 66 66 72 72 77 74
90 75 59 44 44 36 38 34 20 19 20 16 16 24 29 29 29 28 30 35 34 31 32 37 39 41 39 41 44 44 42 42 43 44 44 47 48 45 41 38 52 54 52 49 45 51 48 60 67
95 81 62 37 36 30 27 33 16 12 9 14 18 22 24 29 30 30 31 33 33 31 33 37 40 39 39 40 41 42 41 40 42 41 38 37 38 39 41 38 39 38 34 32 32 30 35 30 37
87 66 57 39 24 16 14 17 4 360 2 7 13 15 18 22 24 27 27 27 30 30 31 32 37 38 37 35 36 36 37 38 36 34 34 32 30 31 30 32 35 31 28 25 26 30 26 24 25
73 10 10 22 11 359 355 351 349 353 356 1 5 8 11 11 18 20 20 23 29 31 29 27 29 32 33 30 30 31 30 31 30 30 33 29 25 23 26 28 28 25 21 20 30 26 21 23 22
71 331 342 348 351 338 341 339 338 346 348 350 352 356 4 4 5 13 17 21 26 30 31 28 26 23 25 25 25 25 27 26 24 25 26 26 25 25 24 21 19 16 8 6 8 12 11 12 10
165 285 304 314 314 316 323 329 332 340 341 339 339 342 348 353 358 2 4 10 16 21 23 23 21 20 19 18 19 19 20 19 19 20 19 16 16 17 15 16 16 13 10 3 357 358 359 1 0
178 235 277 284 293 298 314 312 321 327 331 333 333 333 335 341 343 348 350 353 358 2 7 10 12 11 8 8 11 15 15 11 11 12 10 7 7 7 6 7 7 10 6 1 357 354 354 354 347
211 238 255 272 293 294 285 307 310 314 318 319 322 324 328 335 337 339 340 339 341 344 350 354 355 0 1 359 1 3 6 4 3 2 360 357 354 354 358 7 6 4 0 356 354 354 353 353 352
228 247 259 253 270 286 292 297 297 303 304 297 306 315 323 321 322 323 322 324 325 329 333 339 343 348 349 349 350 349 351 354 358 357 355 352 348 350 352 353 354 352 351 347 347 343 339 339 338
234 237 247 254 256 276 288 282 276 286 298 295 298 304 308 307 303 309 308 309 313 314 316 322 326 332 336 337 339 339 339 341 345 347 349 350 348 343 339 339 338 337 336 334 336 335 332 329 328
231 236 248 255 256 267 278 282 278 284 287 284 289 289 293 296 294 303 311 307 302 302 304 308 312 317 321 323 325 328 331 332 336 337 338 338 335 334 328 324 326 327 326 325 332 330 326 324 323
236 246 257 265 273 275 276 274 271 280 280 286 292 287 290 288 290 297 301 305 302 299 299 299 303 307 309 312 314 317 320 321 322 323 325 325 326 326 325 319 318 320 320 319 322 322 318 315 314
233 241 257 268 269 273 277 269 265 273 282 281 284 285 287 286 285 287 292 295 298 296 296 298 299 301 304 306 310 312 313 314 317 316 318 317 319 320 319 316 311 312 313 315 317 317 314 309 307
230 235 245 258 263 269 260 255 266 271 279 282 281 282 284 287 285 282 284 289 292 293 294 294 296 296 299 302 305 307 310 311 312 313 312 310 311 313 312 311 309 306 306 308 309 307 304 303 304
228 235 247 259 263 260 264 265 268 276 276 279 280 277 281 286 285 286 282 283 287 288 290 293 292 290 292 298 302 306 308 307 307 308 307 306 308 307 306 304 305 306 304 304 303 302 301 300 300
233 235 242 246 259 259 256 261 266 272 276 279 281 280 280 279 281 285 284 280 283 284 286 289 291 291 291 293 296 300 303 305 305 307 308 306 305 305 302 300 300 300 302 303 300 298 297 298 298
241 242 244 247 248 255 258 264 267 273 270 275 281 279 281 280 280 282 285 282 281 282 283 285 287 289 289 291 293 294 296 298 301 304 306 305 303 303 303 299 298 298 299 300 299 300 298 298 299
242 244 246 251 255 255 258 260 262 267 269 272 275 277 278 279 281 280 282 282 282 283 283 284 285 286 288 290 292 293 292 293 295 298 300 300 299 298 299 296 295 296 297 298 297 298 297 297 297
Height
5889 5889 5890 5890 5890 5890 5890 5890 5889 5888 5888 5887 5886 5885 5884 5883 5883 5884 5881 5879 5879 5878 5877 5876 5875 5874 5873 5872 5870 5869 5868 5866 5864 5863 5863 5864 5864 5864 5865 5865 5866 5866 5867 5868 5870 5872 5874 5875 5877
5891 5891 5892 5891 5891 5892 5892 5891 5891 5890 5889 5888 5887 5886 5885 5884 5884 5883 5881 5881 5880 5879 5878 5877 5876 5875 5874 5873 5871 5870 5869 5867 5866 5865 5865 5865 5865 5865 5865 5865 5866 5866 5867 5868 5871 5872 5874 5875 5877
5893 5893 5892 5893 5894 5894 5894 5893 5892 5891 5890 5889 5889 5888 5887 5886 5885 5884 5883 5882 5881 5880 5879 5878 5877 5876 5875 5873 5872 5871 5870 5869 5868 5867 5866 5867 5866 5866 5865 5865 5865 5865 5867 5870 5872 5873 5874 5876 5877
5895 5894 5895 5897 5896 5896 5895 5894 5893 5892 5892 5891 5890 5889 5888 5887 5886 5885 5884 5883 5882 5881 5880 5879 5878 5877 5876 5874 5873 5872 5871 5870 5869 5868 5867 5867 5867 5866 5866 5865 5863 5862 5867 5870 5873 5874 5874 5876 5878
5896 5895 5897 5899 5898 5898 5897 5896 5895 5894 5893 5892 5892 5890 5889 5888 5887 5886 5885 5884 5883 5882 5882 5880 5879 5878 5877 5875 5874 5873 5872 5870 5870 5869 5869 5868 5868 5867 5867 5866 5864 5866 5869 5872 5874 5876 5876 5877 5878
5896 5896 5900 5900 5900 5900 5899 5898 5897 5897 5895 5894 5893 5892 5891 5890 5888 5888 5886 5885 5884 5884 5883 5882 5880 5879 5878 5877 5875 5874 5872 5871 5871 5870 5870 5869 5869 5868 5867 5867 5868 5870 5872 5874 5876 5877 5878 5878 5879
5898 5898 5901 5902 5902 5901 5901 5900 5899 5898 5897 5896 5895 5893 5892 5891 5890 5889 5888 5887 5886 5885 5884 5883 5882 5881 5880 5878 5877 5875 5874 5873 5872 5871 5871 5870 5870 5868 5867 5868 5869 5872 5874 5875 5876 5878 5879 5880 5880
5901 5902 5903 5904 5903 5903 5902 5901 5900 5899 5899 5898 5897 5895 5894 5893 5892 5890 5889 5888 5888 5887 5886 5885 5884 5882 5881 5880 5878 5877 5876 5874 5873 5873 5872 5872 5872 5870 5869 5869 5872 5873 5875 5876 5878 5879 5880 5881 5882
5905 5906 5906 5906 5906 5905 5904 5903 5902 5901 5900 5899 5898 5897 5896 5894 5893 5892 5891 5890 5889 5888 5888 5887 5885 5884 5883 5882 5880 5879 5878 5877 5875 5875 5875 5874 5874 5873 5872 5873 5874 5876 5876 5878 5879 5880 5881 5882 5883
5907 5907 5908 5908 5908 5907 5906 5905 5904 5902 5902 5901 5900 5898 5897 5895 5894 5893 5892 5891 5891 5890 5889 5888 5887 5886 5885 5884 5883 5881 5880 5879 5878 5878 5877 5877 5876 5876 5876 5877 5877 5878 5879 5880 5880 5881 5882 5882 5883
5909 5909 5910 5910 5909 5909 5908 5906 5905 5904 5903 5902 5901 5900 5899 5897 5895 5894 5893 5893 5892 5892 5891 5890 5890 5889 5888 5887 5885 5884 5883 5881 5881 5880 5880 5880 5879 5879 5880 5880 5880 5880 5881 5881 5881 5882 5883 5883 5884
5911 5912 5911 5911 5911 5910 5909 5909 5907 5906 5905 5904 5903 5901 5900 5899 5897 5896 5895 5895 5894 5893 5893 5892 5891 5891 5890 5889 5888 5887 5885 5884 5883 5883 5883 5883 5882 5882 5882 5882 5882 5881 5881 5882 5883 5883 5883 5884 5884
5913 5913 5913 5913 5912 5912 5911 5910 5909 5907 5906 5905 5904 5903 5901 5900 5899 5898 5897 5897 5896 5895 5894 5894 5893 5893 5892 5891 5890 5889 5888 5887 5886 5885 5885 5885 5885 5884 5884 5884 5884 5883 5883 5883 5883 5884 5884 5884 5884
5914 5914 5914 5914 5913 5913 5912 5911 5910 5909 5907 5906 5905 5904 5903 5902 5901 5900 5899 5899 5898 5897 5896 5896 5895 5894 5894 5893 5892 5891 5891 5890 5889 5888 5888 5887 5887 5887 5886 5886 5886 5885 5885 5885 5885 5884 5884 5885 5885
5914 5915 5916 5915 5915 5914 5914 5913 5911 5910 5909 5907 5906 5905 5904 5903 5902 5902 5901 5900 5900 5899 5898 5897 5897 5896 5895 5895 5894 5893 5893 5892 5891 5890 5889 5889 5888 5888 5888 5887 5887 5887 5886 5886 5886 5886 5886 5885 5885
5915 5916 5916 5916 5916 5916 5916 5914 5912 5911 5910 5909 5907 5906 5905 5904 5904 5903 5902 5902 5901 5900 5900 5899 5898 5898 5897 5897 5896 5895 5895 5894 5893 5892 5891 5890 5890 5889 5889 5889 5888 5888 5887 5887 5887 5887 5887 5886 5885
5916 5916 5917 5918 5918 5917 5916 5914 5913 5912 5910 5909 5909 5907 5906 5906 5905 5904 5903 5903 5902 5902 5901 5901 5900 5900 5899 5899 5898 5897 5896 5895 5895 5894 5893 5892 5892 5891 5891 5890 5889 5889 5889 5888 5888 5887 5887 5886 5886
5916 5918 5918 5918 5918 5918 5917 5915 5913 5912 5911 5910 5909 5908 5907 5906 5906 5905 5904 5904 5903 5903 5902 5902 5902 5901 5901 5900 5899 5899 5898 5897 5896 5895 5894 5894 5893 5892 5892 5891 5890 5890 5889 5889 5888 5888 5887 5887 5886
5915 5918 5918 5919 5918 5918 5917 5916 5915 5913 5912 5911 5910 5908 5907 5907 5907 5906 5905 5905 5904 5904 5904 5903 5903 5902 5901 5901 5900 5900 5899 5898 5897 5896 5895 5894 5894 5893 5893 5892 5891 5891 5890 5889 5889 5888 5887 5887 5886
5915 5917 5918 5918 5918 5917 5917 5916 5915 5914 5913 5912 5910 5909 5908 5907 5907 5906 5906 5905 5905 5905 5904 5904 5903 5903 5902 5901 5901 5900 5899 5899 5898 5897 5896 5895 5894 5893 5893 5892 5892 5891 5890 5889 5888 5888 5887 5887 5886
5914 5916 5917 5917 5918 5916 5916 5916 5915 5913 5913 5911 5910 5908 5908 5907 5906 5906 5906 5906 5905 5905 5905 5904 5904 5903 5903 5902 5901 5900 5900 5899 5898 5897 5896 5895 5894 5894 5893 5892 5892 5891 5890 5889 5888 5887 5887 5886 5885
5913 5914 5915 5916 5916 5916 5916 5915 5913 5912 5910 5909 5909 5908 5908 5907 5905 5905 5905 5906 5905 5905 5905 5905 5904 5903 5903 5902 5901 5901 5900 5899 5899 5898 5896 5895 5894 5894 5893 5892 5891 5890 5889 5888 5887 5887 5886 5886 5885
5911 5912 5912 5913 5914 5914 5914 5914 5911 5910 5908 5908 5908 5908 5907 5906 5905 5904 5905 5905 5905 5904 5904 5904 5903 5903 5902 5902 5901 5900 5900 5899 5898 5897 5896 5895 5894 5893 5892 5892 5891 5890 5889 5888 5886 5886 5885 5884 5884
5908 5910 5911 5911 5911 5913 5912 5911 5910 5908 5906 5906 5907 5907 5906 5906 5905 5904 5904 5904 5904 5903 5903 5903 5902 5902 5901 5901 5900 5899 5899 5898 5897 5896 5895 5894 5894 5893 5891 5890 5889 5889 5887 5886 5886 5885 5884 5883 5882
5907 5909 5910 5910 5910 5911 5910 5909 5908 5906 5905 5905 5906 5905 5905 5904 5904 5903 5903 5902 5902 5902 5901 5901 5901 5900 5900 5899 5899 5898 5897 5896 5895 5894 5894 5893 5892 5891 5890 5889 5888 5887 5886 5885 5884 5883 5882 5881 5880
5904 5907 5908 5909 5909 5909 5908 5906 5906 5905 5904 5904 5903 5903 5902 5902 5902 5901 5900 5900 5899 5899 5899 5899 5899 5898 5898 5897 5897 5896 5895 5894 5893 5892 5892 5891 5890 5889 5888 5887 5886 5885 5884 5883 5882 5881 5880 5879 5878
5901 5903 5905 5906 5906 5906 5905 5903 5903 5902 5901 5900 5900 5899 5900 5899 5899 5898 5897 5897 5897 5896 5896 5896 5896 5896 5895 5895 5894 5894 5893 5892 5891 5890 5889 5888 5887 5886 5885 5884 5883 5882 5881 5880 5879 5878 5877 5875 5874
5898 5900 5902 5903 5902 5902 5903 5901 5899 5898 5898 5897 5897 5896 5897 5896 5896 5895 5894 5894 5894 5894 5893 5893 5893 5893 5892 5892 5891 5891 5890 5889 5888 5887 5886 5885 5884 5883 5882 5881 5880 5879 5878 5876 5875 5874 5873 5872 5871
5895 5897 5897 5898 5899 5899 5899 5898 5895 5895 5895 5894 5893 5892 5893 5893 5893 5892 5892 5891 5891 5891 5890 5890 5890 5889 5889 5888 5888 5887 5886 5885 5885 5884 5883 5882 5880 5879 5878 5877 5876 5875 5874 5873 5871 5870 5869 5868 5867
5892 5893 5895 5896 5896 5896 5896 5896 5893 5892 5891 5890 5889 5889 5889 5889 5889 5888 5888 5888 5888 5887 5887 5887 5887 5886 5885 5884 5884 5883 5882 5882 5881 5880 5879 5877 5876 5875 5874 5873 5872 5871 5870 5868 5867 5866 5865 5863 5862